WXM80 ListenWXM80 Stop

You find our weather info also at:

UK Metoffice

WeatherCloud

Weather Underground

Northeastern Weather Network

AWEKAS

Citizen Weather Observer Program (CWOP)

HAMweather, WeatherForYou, PWS Weather


Weather Underground History page Text

Daily Summary for September 25, 2017 Units:  Metric    English   Both
« Previous Day
Next Day »
Daily Weekly Monthly Yearly Custom
  High: Low: Average:
Temperature: 29.8 °C 18 °C 22.6 °C
Dew Point: 22.8 °C 16.3 °C 19.2 °C
Humidity: 97 % 62 % 82 %
Wind Speed: 7.6 km/h 0 km/h 1 km/h
Wind Gust: 14.8 km/h - -
Wind:- - ESE
Pressure: 1015.5 hPa 1012.8 hPa -
Precipitation: 0 mm    
Historical Graphs
 
 
Tabular Data for September 25, 2017
Time Temperature Dew Point Pressure Wind Wind Speed Wind Gust Humidity Rainfall Rate (Hourly)
00:00 20.4 °C 16.9 °C 1014.4 hPa Calm     80 % 0 mm
00:05 20.3 °C 16.8 °C 1014.4 hPa Calm     80 % 0 mm
00:10 20.3 °C 16.7 °C 1014.4 hPa Calm     80 % 0 mm
00:15 20.2 °C 16.6 °C 1014.4 hPa Calm     80 % 0 mm
00:20 20.1 °C 16.7 °C 1014.4 hPa Calm     81 % 0 mm
00:25 20.1 °C 16.7 °C 1014.4 hPa Calm     81 % 0 mm
00:30 19.9 °C 16.6 °C 1014.1 hPa Calm     81 % 0 mm
00:35 19.9 °C 16.6 °C 1014.1 hPa Calm     81 % 0 mm
00:40 19.8 °C 16.5 °C 1013.8 hPa Calm     81 % 0 mm
00:45 19.8 °C 16.4 °C 1013.8 hPa Calm     81 % 0 mm
00:50 19.7 °C 16.4 °C 1013.8 hPa Calm     81 % 0 mm
00:55 19.7 °C 16.5 °C 1013.8 hPa Calm     82 % 0 mm
01:00 19.6 °C 16.4 °C 1013.8 hPa Calm     82 % 0 mm
01:06 19.6 °C 16.6 °C 1013.8 hPa Calm     83 % 0 mm
01:10 19.5 °C 16.6 °C 1013.8 hPa Calm     83 % 0 mm
01:16 19.4 °C 16.3 °C 1013.8 hPa Calm     82 % 0 mm
01:21 19.4 °C 16.4 °C 1013.8 hPa Calm     83 % 0 mm
01:26 19.3 °C 16.4 °C 1013.8 hPa Calm     83 % 0 mm
01:31 19.3 °C 16.3 °C 1013.8 hPa Calm     83 % 0 mm
01:36 19.3 °C 16.5 °C 1013.8 hPa Calm     84 % 0 mm
01:41 19.2 °C 16.4 °C 1013.8 hPa Calm     84 % 0 mm
01:46 19.2 °C 16.4 °C 1013.8 hPa Calm     84 % 0 mm
01:51 19.2 °C 16.4 °C 1013.8 hPa Calm     84 % 0 mm
01:56 19.1 °C 16.3 °C 1013.4 hPa Calm     84 % 0 mm
02:01 19.1 °C 16.6 °C 1013.4 hPa Calm     85 % 0 mm
02:06 19.1 °C 16.5 °C 1013.4 hPa Calm     85 % 0 mm
02:11 19 °C 16.4 °C 1013.4 hPa Calm     85 % 0 mm
02:16 18.9 °C 16.4 °C 1013.4 hPa Calm     85 % 0 mm
02:21 18.9 °C 16.4 °C 1013.4 hPa Calm     85 % 0 mm
02:26 18.9 °C 16.6 °C 1013.4 hPa Calm     86 % 0 mm
02:31 18.9 °C 16.5 °C 1013.4 hPa Calm     86 % 0 mm
02:36 18.8 °C 16.4 °C 1013.4 hPa Calm     86 % 0 mm
02:41 18.8 °C 16.6 °C 1013.4 hPa Calm     87 % 0 mm
02:46 18.8 °C 16.6 °C 1013.4 hPa Calm     87 % 0 mm
02:51 18.8 °C 16.6 °C 1013.4 hPa Calm     87 % 0 mm
02:56 18.8 °C 16.6 °C 1013.1 hPa Calm     87 % 0 mm
03:01 18.7 °C 16.7 °C 1013.1 hPa Calm     88 % 0 mm
03:06 18.7 °C 16.7 °C 1013.1 hPa Calm     88 % 0 mm
03:11 18.7 °C 16.7 °C 1013.1 hPa Calm     88 % 0 mm
03:16 18.7 °C 16.8 °C 1013.1 hPa Calm     89 % 0 mm
03:21 18.7 °C 16.8 °C 1013.1 hPa Calm     89 % 0 mm
03:26 18.6 °C 16.6 °C 1013.1 hPa Calm     88 % 0 mm
03:31 18.6 °C 16.8 °C 1013.1 hPa Calm     89 % 0 mm
03:36 18.6 °C 16.7 °C 1013.4 hPa Calm     89 % 0 mm
03:41 18.6 °C 16.7 °C 1013.4 hPa Calm     89 % 0 mm
03:46 18.6 °C 16.7 °C 1013.4 hPa Calm     89 % 0 mm
03:51 18.5 °C 16.7 °C 1013.4 hPa Calm     89 % 0 mm
03:56 18.5 °C 16.8 °C 1013.4 hPa Calm     90 % 0 mm
04:01 18.5 °C 16.7 °C 1013.4 hPa Calm     89 % 0 mm
04:06 18.4 °C 16.6 °C 1013.1 hPa Calm     89 % 0 mm
04:11 18.4 °C 16.6 °C 1013.4 hPa Calm     89 % 0 mm
04:16 18.4 °C 16.6 °C 1013.1 hPa Calm     89 % 0 mm
04:21 18.4 °C 16.6 °C 1013.1 hPa Calm     89 % 0 mm
04:27 18.4 °C 16.7 °C 1013.1 hPa Calm     90 % 0 mm
04:32 18.3 °C 16.7 °C 1013.4 hPa Calm     90 % 0 mm
04:37 18.3 °C 16.7 °C 1013.4 hPa Calm     90 % 0 mm
04:42 18.3 °C 16.7 °C 1013.4 hPa Calm     90 % 0 mm
04:47 18.3 °C 16.8 °C 1013.1 hPa Calm     91 % 0 mm
04:52 18.3 °C 16.8 °C 1013.1 hPa Calm     91 % 0 mm
04:57 18.3 °C 16.8 °C 1013.1 hPa Calm     91 % 0 mm
05:02 18.3 °C 16.8 °C 1013.1 hPa Calm     91 % 0 mm
05:07 18.2 °C 16.7 °C 1013.1 hPa Calm     91 % 0 mm
05:12 18.2 °C 16.7 °C 1013.1 hPa Calm     91 % 0 mm
05:17 18.2 °C 16.7 °C 1013.1 hPa Calm     91 % 0 mm
05:18 18.2 °C 16.7 °C 1013.1 hPa Calm     91 % 0 mm
05:23 18.2 °C 16.7 °C 1013.1 hPa Calm     91 % 0 mm
05:28 18.2 °C 16.7 °C 1013.1 hPa Calm     91 % 0 mm
05:33 18.2 °C 16.7 °C 1013.1 hPa Calm     91 % 0 mm
05:38 18.1 °C 16.6 °C 1013.1 hPa Calm     91 % 0 mm
05:43 18.1 °C 16.6 °C 1013.4 hPa Calm     91 % 0 mm
05:48 18.1 °C 16.6 °C 1013.4 hPa Calm     91 % 0 mm
05:53 18.1 °C 16.6 °C 1013.4 hPa Calm     91 % 0 mm
05:58 18.1 °C 16.7 °C 1013.4 hPa Calm     92 % 0 mm
06:03 18.1 °C 16.7 °C 1013.8 hPa Calm     92 % 0 mm
06:08 18.1 °C 16.9 °C 1013.8 hPa Calm     93 % 0 mm
06:18 18.1 °C 16.9 °C 1013.8 hPa Calm     93 % 0 mm
06:23 18.1 °C 16.9 °C 1013.8 hPa Calm     93 % 0 mm
06:28 18.1 °C 16.9 °C 1013.8 hPa Calm     93 % 0 mm
06:33 18 °C 16.8 °C 1014.1 hPa Calm     93 % 0 mm
06:39 18.1 °C 16.9 °C 1014.1 hPa Calm     93 % 0 mm
06:44 18 °C 16.8 °C 1014.1 hPa Calm     93 % 0 mm
06:49 18.1 °C 16.9 °C 1014.1 hPa Calm     93 % 0 mm
06:54 18.1 °C 16.9 °C 1014.1 hPa Calm     93 % 0 mm
06:59 18 °C 16.8 °C 1014.1 hPa Calm     93 % 0 mm
07:04 18 °C 16.8 °C 1014.1 hPa Calm     93 % 0 mm
07:09 18 °C 17 °C 1014.1 hPa Calm     94 % 0 mm
07:14 18.1 °C 17.1 °C 1014.1 hPa Calm     94 % 0 mm
07:19 18.1 °C 17.1 °C 1014.1 hPa Calm     94 % 0 mm
07:24 18.2 °C 17.2 °C 1014.4 hPa Calm     94 % 0 mm
07:29 18.2 °C 17.4 °C 1014.8 hPa Calm     95 % 0 mm
07:34 18.3 °C 17.4 °C 1014.8 hPa West 0.2 km/h 1.6 km/h 95 % 0 mm
07:39 18.4 °C 17.6 °C 1014.8 hPa Calm     95 % 0 mm
07:44 18.5 °C 17.7 °C 1014.8 hPa Calm     95 % 0 mm
07:49 18.7 °C 18 °C 1014.8 hPa Calm     96 % 0 mm
07:54 18.9 °C 18.2 °C 1014.8 hPa Calm     96 % 0 mm
07:59 19.1 °C 18.4 °C 1014.8 hPa Calm     96 % 0 mm
08:04 19.3 °C 18.8 °C 1014.8 hPa Calm     97 % 0 mm
08:09 19.4 °C 18.9 °C 1014.8 hPa NE 0.2 km/h 1.9 km/h 97 % 0 mm
08:14 19.6 °C 19.1 °C 1014.8 hPa Calm     97 % 0 mm
08:19 19.7 °C 19.2 °C 1014.8 hPa Calm   1.9 km/h 97 % 0 mm
08:24 19.7 °C 19 °C 1014.8 hPa Calm     96 % 0 mm
08:29 19.8 °C 19.1 °C 1014.8 hPa Calm     96 % 0 mm
08:34 19.9 °C 19.2 °C 1014.8 hPa Calm     96 % 0 mm
08:39 20.1 °C 19.4 °C 1014.8 hPa Calm     96 % 0 mm
08:44 20.2 °C 19.5 °C 1014.8 hPa Calm     96 % 0 mm
08:50 20.3 °C 19.7 °C 1014.8 hPa Calm   1.9 km/h 96 % 0 mm
08:55 20.6 °C 19.9 °C 1014.8 hPa North 1.9 km/h 5.6 km/h 96 % 0 mm
08:57 20.7 °C 19.8 °C 1014.8 hPa North 2.1 km/h 5.6 km/h 95 % 0 mm
09:02 20.8 °C 20 °C 1015.1 hPa NW 1.6 km/h 3.2 km/h 95 % 0 mm
09:07 21 °C 20.2 °C 1015.1 hPa NW 2.1 km/h 3.7 km/h 95 % 0 mm
09:12 21.2 °C 20.4 °C 1015.1 hPa North 2.7 km/h 3.7 km/h 95 % 0 mm
09:17 21.3 °C 20.3 °C 1015.1 hPa North 2.7 km/h 5.6 km/h 94 % 0 mm
09:22 21.5 °C 20.5 °C 1015.1 hPa NNW 1.6 km/h 1.9 km/h 94 % 0 mm
09:27 21.7 °C 20.6 °C 1015.5 hPa North 0.5 km/h 3.7 km/h 93 % 0 mm
09:32 21.8 °C 20.6 °C 1015.5 hPa North 1.1 km/h 3.7 km/h 93 % 0 mm
09:38 21.9 °C 20.6 °C 1015.5 hPa NW 2.7 km/h 3.7 km/h 92 % 0 mm
09:43 22 °C 20.7 °C 1015.5 hPa North 3.5 km/h 4.8 km/h 92 % 0 mm
09:48 22.1 °C 20.7 °C 1015.5 hPa North 2.3 km/h 6.4 km/h 92 % 0 mm
09:53 22.2 °C 20.7 °C 1015.5 hPa NNE 5.3 km/h 8 km/h 91 % 0 mm
09:58 22.3 °C 20.8 °C 1015.5 hPa NE 2.6 km/h 5.6 km/h 91 % 0 mm
10:03 22.4 °C 20.9 °C 1015.5 hPa North 4.3 km/h 5.6 km/h 91 % 0 mm
10:08 22.6 °C 21 °C 1015.5 hPa NE 7.2 km/h 11.1 km/h 91 % 0 mm
10:13 22.7 °C 21.2 °C 1015.5 hPa NNE 4.5 km/h 5.6 km/h 91 % 0 mm
10:18 22.8 °C 21.3 °C 1015.5 hPa NNE 6.6 km/h 9.3 km/h 91 % 0 mm
10:23 23.1 °C 21.3 °C 1015.5 hPa NNE 4.8 km/h 8 km/h 90 % 0 mm
10:28 23.2 °C 21.4 °C 1015.5 hPa ENE 3.7 km/h 7.4 km/h 90 % 0 mm
10:33 23.2 °C 21.3 °C 1015.5 hPa NNE 4.2 km/h 9.7 km/h 89 % 0 mm
10:38 23.3 °C 21.4 °C 1015.1 hPa NNW 1.8 km/h 5.6 km/h 89 % 0 mm
10:43 23.4 °C 21.5 °C 1015.1 hPa NNE 7.1 km/h 9.3 km/h 89 % 0 mm
10:48 23.5 °C 21.6 °C 1015.1 hPa NNE 4.2 km/h 7.4 km/h 89 % 0 mm
10:53 23.6 °C 21.6 °C 1015.1 hPa NNW 4.2 km/h 6.4 km/h 89 % 0 mm
10:58 23.7 °C 21.6 °C 1015.1 hPa NNE 3.7 km/h 7.4 km/h 88 % 0 mm
11:03 23.7 °C 21.6 °C 1015.1 hPa NNW 3.7 km/h 9.3 km/h 88 % 0 mm
11:08 23.9 °C 21.9 °C 1015.1 hPa NE 4.3 km/h 6.4 km/h 89 % 0 mm
11:13 24.2 °C 22.2 °C 1015.1 hPa ENE 2.6 km/h 5.6 km/h 89 % 0 mm
11:19 24.6 °C 22.2 °C 1015.1 hPa NE 2.6 km/h 7.4 km/h 87 % 0 mm
11:24 25.1 °C 22.3 °C 1015.1 hPa ENE 3.7 km/h 5.6 km/h 85 % 0 mm
11:29 25.5 °C 22.4 °C 1014.8 hPa NE 2.4 km/h 5.6 km/h 83 % 0 mm
11:34 25.8 °C 22.3 °C 1014.8 hPa ENE 3.9 km/h 11.3 km/h 81 % 0 mm
11:39 26.2 °C 22.7 °C 1014.8 hPa North 6 km/h 7.4 km/h 81 % 0 mm
11:44 26.4 °C 22.5 °C 1014.8 hPa NE 2.3 km/h 5.6 km/h 79 % 0 mm
11:49 26.8 °C 22.6 °C 1014.8 hPa NE 3.4 km/h 5.6 km/h 78 % 0 mm
11:54 27.1 °C 22.4 °C 1014.8 hPa ENE 3.4 km/h 5.6 km/h 76 % 0 mm
11:59 27.3 °C 22.7 °C 1014.8 hPa ENE 2.3 km/h 5.6 km/h 76 % 0 mm
12:04 27.4 °C 22.6 °C 1014.8 hPa ENE 3.4 km/h 5.6 km/h 75 % 0 mm
12:09 27.4 °C 22.8 °C 1014.8 hPa NE 1.6 km/h 3.7 km/h 76 % 0 mm
12:14 27.6 °C 22.7 °C 1014.8 hPa North 3.1 km/h 5.6 km/h 75 % 0 mm
12:19 27.6 °C 22.6 °C 1014.8 hPa North 5.6 km/h 11.3 km/h 74 % 0 mm
12:24 27.8 °C 22.8 °C 1014.8 hPa ENE 3.5 km/h 8 km/h 74 % 0 mm
12:29 27.9 °C 22.4 °C 1014.8 hPa NNE 3.2 km/h 5.6 km/h 72 % 0 mm
12:34 28 °C 22.5 °C 1014.4 hPa ENE 4.5 km/h 5.6 km/h 72 % 0 mm
12:39 28.2 °C 22.4 °C 1014.8 hPa ENE 0.6 km/h 1.9 km/h 71 % 0 mm
12:44 28.4 °C 22.2 °C 1014.8 hPa Calm   1.9 km/h 69 % 0 mm
12:49 28.7 °C 21.9 °C 1014.4 hPa Calm   1.9 km/h 67 % 0 mm
12:54 28.9 °C 22.2 °C 1014.8 hPa NE 0.2 km/h 1.6 km/h 67 % 0 mm
12:59 29.2 °C 22.2 °C 1014.8 hPa NE 3.5 km/h 5.6 km/h 66 % 0 mm
13:04 29.3 °C 22 °C 1014.8 hPa NE 0.8 km/h 5.6 km/h 65 % 0 mm
13:09 29.2 °C 21.7 °C 1014.4 hPa NE 1.9 km/h 3.2 km/h 64 % 0 mm
13:14 29.3 °C 22.3 °C 1014.4 hPa NNE 1 km/h 3.2 km/h 66 % 0 mm
13:19 29.3 °C 21.5 °C 1014.4 hPa NE 1 km/h 3.7 km/h 63 % 0 mm
13:24 29.2 °C 21.9 °C 1014.4 hPa NE 4.3 km/h 5.6 km/h 65 % 0 mm
13:29 29.2 °C 21.9 °C 1014.4 hPa North 2.4 km/h 3.7 km/h 65 % 0 mm
13:35 29.2 °C 21.7 °C 1014.4 hPa NE 1.1 km/h 3.7 km/h 64 % 0 mm
13:40 29.2 °C 21.7 °C 1014.1 hPa NE 1.8 km/h 5.6 km/h 64 % 0 mm
13:45 29.2 °C 21.9 °C 1014.1 hPa NE 0.6 km/h 3.2 km/h 65 % 0 mm
13:50 29.3 °C 22 °C 1014.1 hPa NE 1.9 km/h 5.6 km/h 65 % 0 mm
13:55 29.4 °C 22.1 °C 1013.8 hPa NNE 2.4 km/h 7.4 km/h 65 % 0 mm
14:00 29.4 °C 22.2 °C 1013.8 hPa North 3.2 km/h 6.4 km/h 65 % 0 mm
14:05 29.7 °C 22.6 °C 1013.8 hPa NNE 1.8 km/h 3.7 km/h 66 % 0 mm
14:10 29.8 °C 22.2 °C 1013.8 hPa ENE 0.8 km/h 3.7 km/h 64 % 0 mm
14:15 29.8 °C 22.7 °C 1013.8 hPa NE 3.2 km/h 5.6 km/h 66 % 0 mm
14:20 29.7 °C 22.1 °C 1013.8 hPa NE 2.4 km/h 5.6 km/h 64 % 0 mm
14:26 29.6 °C 22 °C 1013.8 hPa NE 1.6 km/h 4.8 km/h 64 % 0 mm
14:31 29.3 °C 21.6 °C 1013.4 hPa ENE 3.2 km/h 8 km/h 63 % 0 mm
14:36 29.2 °C 22.2 °C 1013.4 hPa Calm   6.4 km/h 66 % 0 mm
14:41 29.2 °C 21.9 °C 1013.4 hPa Calm   1.6 km/h 65 % 0 mm
14:46 29.1 °C 21.1 °C 1013.4 hPa NE 1.6 km/h 6.4 km/h 62 % 0 mm
14:51 29.1 °C 21.6 °C 1013.4 hPa Calm     64 % 0 mm
14:56 29 °C 21.2 °C 1013.4 hPa NE 3.4 km/h 5.6 km/h 63 % 0 mm
15:01 28.8 °C 21.1 °C 1013.4 hPa ENE 2.7 km/h 5.6 km/h 63 % 0 mm
15:06 28.7 °C 21.7 °C 1013.4 hPa ENE 1.6 km/h 5.6 km/h 66 % 0 mm
15:11 28.6 °C 22.1 °C 1013.4 hPa NE 1 km/h 3.7 km/h 68 % 0 mm
15:16 28.4 °C 22.2 °C 1013.1 hPa NE 0.6 km/h 1.9 km/h 69 % 0 mm
15:21 28.3 °C 21.1 °C 1013.4 hPa NE 1.4 km/h 1.9 km/h 65 % 0 mm
15:26 28.2 °C 21.3 °C 1013.4 hPa NE 0.8 km/h 1.9 km/h 66 % 0 mm
15:31 28.2 °C 21.3 °C 1013.4 hPa NE 0.2 km/h 1.9 km/h 66 % 0 mm
15:37 28.1 °C 21.4 °C 1013.1 hPa Calm   1.9 km/h 67 % 0 mm
15:42 28.1 °C 21.1 °C 1013.1 hPa NE 1.6 km/h 3.7 km/h 66 % 0 mm
15:47 27.9 °C 21.2 °C 1013.4 hPa Calm   5.6 km/h 67 % 0 mm
15:52 27.9 °C 21.2 °C 1013.1 hPa Calm   1.9 km/h 67 % 0 mm
15:57 27.8 °C 20.9 °C 1013.1 hPa NE 0.2 km/h 1.9 km/h 66 % 0 mm
16:02 27.8 °C 21.2 °C 1013.1 hPa NE 0.3 km/h 1.9 km/h 67 % 0 mm
16:07 27.8 °C 20.6 °C 1013.1 hPa NE 0.6 km/h 1.9 km/h 65 % 0 mm
16:12 27.8 °C 20.6 °C 1013.1 hPa NE 0.2 km/h 1.9 km/h 65 % 0 mm
16:17 27.7 °C 20.1 °C 1013.1 hPa NE 1 km/h 3.2 km/h 63 % 0 mm
16:22 27.7 °C 20.2 °C 1013.1 hPa NE 1.8 km/h 3.7 km/h 64 % 0 mm
16:27 27.7 °C 20.5 °C 1013.1 hPa NE 3.2 km/h 5.6 km/h 65 % 0 mm
16:32 27.6 °C 20.4 °C 1013.1 hPa NE 2.7 km/h 5.6 km/h 65 % 0 mm
16:37 27.6 °C 20.9 °C 1013.1 hPa NE 1 km/h 1.9 km/h 67 % 0 mm
16:42 27.5 °C 20.6 °C 1013.1 hPa NE 0.8 km/h 1.9 km/h 66 % 0 mm
16:47 27.4 °C 20.5 °C 1013.1 hPa NE 1 km/h 1.9 km/h 66 % 0 mm
16:52 27.3 °C 20.6 °C 1013.1 hPa Calm   1.9 km/h 67 % 0 mm
16:57 27.3 °C 20.6 °C 1013.1 hPa SE 0.5 km/h 1.9 km/h 67 % 0 mm
17:02 27.3 °C 20.7 °C 1013.1 hPa SE 0.8 km/h 1.9 km/h 67 % 0 mm
17:07 27.3 °C 20.6 °C 1013.1 hPa Calm   1.9 km/h 67 % 0 mm
17:12 27.2 °C 20.8 °C 1013.1 hPa Calm   1.9 km/h 68 % 0 mm
17:17 27.2 °C 20.8 °C 1013.1 hPa SE 1.1 km/h 3.7 km/h 68 % 0 mm
17:23 27.2 °C 21.1 °C 1013.1 hPa SE 2.7 km/h 6.4 km/h 69 % 0 mm
17:28 27.2 °C 21 °C 1013.1 hPa SE 0.5 km/h 1.9 km/h 69 % 0 mm
17:33 27.1 °C 20.9 °C 1013.1 hPa SE 0.2 km/h 1.9 km/h 69 % 0 mm
17:38 27.1 °C 21.2 °C 1013.1 hPa SE 0.8 km/h 3.7 km/h 70 % 0 mm
17:43 27 °C 21.1 °C 1013.1 hPa SE 3.1 km/h 5.6 km/h 70 % 0 mm
17:48 27 °C 21.1 °C 1013.1 hPa SE 0.8 km/h 5.6 km/h 70 % 0 mm
17:53 27 °C 21.3 °C 1013.1 hPa Calm   5.6 km/h 71 % 0 mm
17:58 27 °C 21.3 °C 1013.1 hPa Calm   1.9 km/h 71 % 0 mm
18:03 26.9 °C 21.2 °C 1013.1 hPa Calm   1.9 km/h 71 % 0 mm
18:08 26.9 °C 21.2 °C 1012.8 hPa SE 2.6 km/h 5.6 km/h 71 % 0 mm
18:13 26.8 °C 21.1 °C 1012.8 hPa SE 1.3 km/h 3.7 km/h 71 % 0 mm
18:18 26.8 °C 21.1 °C 1013.1 hPa SE 3.1 km/h 6.4 km/h 71 % 0 mm
18:23 26.7 °C 21.2 °C 1013.1 hPa SE 1.9 km/h 4.8 km/h 72 % 0 mm
18:28 26.6 °C 20.9 °C 1013.1 hPa SE 0.5 km/h 3.7 km/h 71 % 0 mm
18:33 26.3 °C 20.7 °C 1013.1 hPa SE 0.8 km/h 5.6 km/h 71 % 0 mm
18:43 25.8 °C 20.2 °C 1013.1 hPa SE 2.4 km/h 7.4 km/h 71 % 0 mm
18:53 25.4 °C 20.2 °C 1013.1 hPa SSE 5.8 km/h 14.5 km/h 73 % 0 mm
18:58 25.2 °C 20.4 °C 1013.1 hPa SE 3.5 km/h 11.1 km/h 75 % 0 mm
19:03 24.9 °C 20.4 °C 1012.8 hPa SE 4.3 km/h 14.8 km/h 76 % 0 mm
19:08 24.7 °C 20.4 °C 1013.1 hPa SE 2.4 km/h 5.6 km/h 77 % 0 mm
19:13 24.4 °C 20.3 °C 1013.1 hPa SSE 4.7 km/h 7.4 km/h 78 % 0 mm
19:18 24.1 °C 20.2 °C 1013.1 hPa SE 4.2 km/h 11.1 km/h 79 % 0 mm
19:23 23.8 °C 19.9 °C 1013.4 hPa SE 1.4 km/h 5.6 km/h 79 % 0 mm
19:28 23.7 °C 20 °C 1013.4 hPa SE 2.6 km/h 3.7 km/h 80 % 0 mm
19:33 23.5 °C 19.7 °C 1013.4 hPa SE 7.6 km/h 8 km/h 79 % 0 mm
19:38 23.2 °C 19.4 °C 1013.4 hPa Calm   5.6 km/h 79 % 0 mm
19:43 23 °C 19.2 °C 1013.4 hPa SE 4.2 km/h 7.4 km/h 79 % 0 mm
19:48 22.8 °C 19 °C 1013.4 hPa SE 4 km/h 7.4 km/h 79 % 0 mm
19:53 22.7 °C 18.8 °C 1013.4 hPa Calm   1.9 km/h 79 % 0 mm
19:58 22.6 °C 19 °C 1013.8 hPa SE 0.2 km/h 1.9 km/h 80 % 0 mm
20:04 22.5 °C 18.7 °C 1013.8 hPa SE 0.8 km/h 5.6 km/h 79 % 0 mm
20:09 22.4 °C 18.8 °C 1013.8 hPa SE 1.1 km/h   80 % 0 mm
20:14 22.3 °C 18.7 °C 1013.8 hPa Calm   1.6 km/h 80 % 0 mm
20:19 22.2 °C 18.8 °C 1013.8 hPa Calm   7.4 km/h 81 % 0 mm
20:24 22.1 °C 18.7 °C 1013.8 hPa Calm   1.9 km/h 81 % 0 mm
20:29 22.1 °C 18.7 °C 1013.8 hPa Calm     81 % 0 mm
20:34 22.1 °C 18.7 °C 1013.8 hPa Calm     81 % 0 mm
20:39 21.9 °C 18.6 °C 1013.8 hPa Calm     81 % 0 mm
20:44 21.9 °C 18.7 °C 1013.8 hPa Calm     82 % 0 mm
20:49 21.8 °C 18.6 °C 1014.1 hPa Calm   1.9 km/h 82 % 0 mm
20:54 21.7 °C 18.7 °C 1014.1 hPa Calm   1.9 km/h 83 % 0 mm
20:59 21.7 °C 18.7 °C 1013.8 hPa Calm   1.9 km/h 83 % 0 mm
21:04 21.6 °C 18.6 °C 1014.1 hPa Calm     83 % 0 mm
21:09 21.5 °C 18.5 °C 1014.1 hPa Calm     83 % 0 mm
21:14 21.4 °C 18.4 °C 1014.1 hPa Calm     83 % 0 mm
21:19 21.3 °C 18.3 °C 1014.1 hPa Calm     83 % 0 mm
21:24 21.2 °C 18.4 °C 1014.1 hPa Calm     84 % 0 mm
21:29 21.2 °C 18.3 °C 1014.1 hPa Calm     84 % 0 mm
21:34 21.1 °C 18.4 °C 1014.1 hPa Calm     85 % 0 mm
21:39 20.9 °C 18.3 °C 1014.1 hPa Calm     85 % 0 mm
21:44 20.9 °C 18.3 °C 1014.1 hPa Calm     85 % 0 mm
21:49 20.8 °C 18.2 °C 1014.1 hPa Calm     85 % 0 mm
21:54 20.7 °C 18.3 °C 1014.1 hPa Calm     86 % 0 mm
21:59 20.6 °C 18.2 °C 1014.1 hPa Calm     86 % 0 mm
22:04 20.5 °C 18.1 °C 1013.8 hPa Calm     86 % 0 mm
22:10 20.4 °C 18.2 °C 1013.8 hPa Calm     87 % 0 mm
22:15 20.4 °C 18.2 °C 1013.8 hPa Calm     87 % 0 mm
22:20 20.3 °C 18.1 °C 1013.8 hPa Calm     87 % 0 mm
22:25 20.2 °C 18 °C 1013.8 hPa Calm     87 % 0 mm
22:30 20.1 °C 17.9 °C 1013.8 hPa Calm     87 % 0 mm
22:35 20.1 °C 18 °C 1014.1 hPa Calm     88 % 0 mm
22:40 20 °C 17.9 °C 1014.1 hPa Calm     88 % 0 mm
22:45 19.9 °C 17.9 °C 1013.8 hPa Calm     88 % 0 mm
22:50 19.9 °C 17.8 °C 1013.8 hPa Calm     88 % 0 mm
22:55 19.8 °C 17.7 °C 1013.8 hPa Calm     88 % 0 mm
23:00 19.8 °C 17.9 °C 1013.8 hPa Calm     89 % 0 mm
23:05 19.7 °C 17.8 °C 1013.4 hPa Calm     89 % 0 mm
23:10 19.6 °C 17.7 °C 1013.4 hPa Calm     89 % 0 mm
23:17 19.5 °C 17.6 °C 1013.4 hPa Calm     89 % 0 mm
23:22 19.4 °C 17.6 °C 1013.4 hPa Calm     89 % 0 mm
23:24 19.4 °C 17.6 °C 1013.4 hPa Calm     89 % 0 mm
23:29 19.4 °C 17.6 °C 1013.4 hPa Calm     89 % 0 mm
23:32 19.3 °C 17.7 °C 1013.4 hPa Calm     90 % 0 mm
23:37 19.3 °C 17.6 °C 1013.4 hPa Calm     90 % 0 mm
23:47 19.2 °C 17.6 °C 1013.1 hPa Calm     90 % 0 mm
23:53 19.2 °C 17.5 °C 1013.1 hPa Calm     90 % 0 mm
23:58 19.1 °C 17.4 °C 1013.1 hPa Calm     90 % 0 mm
Crab Meadow Weather
Compliments of Weather Underground - 3 mb

Script developed by  Jim McMurry - jmcmurry@mwt.net Adapted for the template by  Wim van der Kuil - Leuven-Template.eu

Extremes: The most widespread U.S. cold wave was in February of 1899. It was so cold that the Mississippi River froze over its entire length, with ice as thick as two inches even in New Orleans.